Theta_e
318 318 318 317 317 317 317 318 318 318 319 319 319 319 319 320 320 320 320 320 320 321 320 320 321 320 320 319 319 320 319 315 310 308 306 307 319 323 334 332 336 336 340 335 330 326 318 318 318 322 333 334 331 332 338 339 340 340 325 321 315 316 316 323 323 328 331 328 332 333 337 332 329 336 337 344 337 336 336 334 335 337 336 338 340 343 345 345
318 317 317 317 317 317 317 318 318 318 318 318 318 319 319 319 319 320 320 320 320 320 321 320 320 321 321 320 319 321 318 312 308 307 308 323 328 327 336 334 343 341 344 330 325 319 315 312 316 320 327 325 330 330 339 333 340 329 324 320 315 316 320 330 329 333 330 330 332 334 339 333 331 336 336 331 331 332 331 331 333 333 335 338 341 342 342 344
317 317 317 317 317 316 317 317 317 318 318 318 318 319 319 319 319 319 319 320 319 320 320 321 321 321 321 321 320 321 313 310 311 309 315 338 331 331 336 341 344 343 331 327 322 316 312 312 317 319 320 316 326 328 335 330 335 333 325 317 317 322 324 332 333 333 335 335 333 334 337 335 336 335 337 331 329 331 327 327 330 330 331 334 338 340 341 343
317 317 317 317 316 316 317 317 317 317 317 317 318 318 318 319 319 319 319 319 320 320 321 320 321 322 322 321 323 317 314 309 310 316 320 346 337 334 337 345 343 337 317 323 317 313 315 317 318 318 315 314 316 322 325 327 329 331 326 318 320 325 324 331 336 336 337 336 335 336 337 333 336 336 337 331 327 328 328 331 330 330 332 334 337 338 341 342
317 317 317 316 316 316 316 316 316 317 317 317 317 317 318 318 318 318 318 318 319 320 320 321 322 323 324 322 322 313 309 304 308 319 326 347 342 338 342 347 345 319 315 313 312 313 316 318 318 317 317 312 315 317 317 321 327 322 326 328 327 326 323 331 338 338 336 338 335 334 330 330 338 336 337 331 325 324 329 332 334 335 335 335 335 337 341 341
316 316 316 316 316 316 316 316 316 316 316 316 317 317 317 317 318 318 318 318 319 319 320 321 322 324 324 320 314 313 305 297 311 313 356 349 344 340 343 345 348 314 312 312 310 310 315 316 317 313 313 313 313 313 318 321 326 316 321 323 326 328 324 333 337 336 336 333 333 331 334 336 333 331 337 332 330 335 336 335 337 337 337 338 338 339 339 340
316 316 315 316 316 315 316 316 316 316 316 316 316 317 317 317 317 317 317 317 318 318 320 321 322 324 323 319 312 311 304 307 314 317 350 348 346 342 341 347 338 310 310 307 307 309 309 315 315 313 312 312 313 315 319 322 325 321 317 319 319 323 323 333 334 336 334 334 332 338 337 332 331 327 337 332 339 339 340 337 338 338 339 338 337 338 339 339
316 315 315 315 315 315 315 316 316 316 316 316 316 317 317 317 317 317 317 317 318 319 320 321 322 324 322 312 307 299 302 305 313 317 354 348 343 341 341 321 313 309 307 306 306 307 308 312 313 314 310 312 314 315 320 319 321 319 318 321 321 321 321 333 335 335 334 334 339 336 333 332 333 332 335 332 337 340 339 338 338 338 337 337 337 338 339 339
315 315 315 315 315 315 316 315 316 316 316 316 316 316 317 317 316 317 317 318 318 319 320 322 322 324 323 311 301 301 303 309 317 334 341 336 334 337 331 321 313 309 306 304 306 307 310 307 310 316 309 311 314 314 314 313 311 320 320 321 320 319 322 333 334 334 334 336 337 332 332 336 340 337 332 334 337 339 338 336 337 337 336 336 336 338 339 339
315 316 315 315 315 315 315 316 316 316 316 316 316 316 316 316 316 317 318 318 319 319 320 321 322 325 315 308 304 298 306 321 344 342 334 328 333 330 325 323 313 310 307 305 303 307 309 307 312 314 313 313 314 311 316 316 313 318 315 315 314 312 320 332 332 333 335 336 336 330 331 334 337 333 324 335 338 339 338 335 337 336 335 336 337 338 339 339
315 315 315 315 315 315 315 315 316 316 316 316 316 315 315 316 316 316 317 318 318 319 320 322 325 321 309 309 301 295 312 333 335 334 335 332 330 324 320 320 314 311 309 306 304 307 311 311 313 315 314 309 313 310 310 313 314 311 311 310 309 316 323 331 332 332 334 333 334 333 330 333 333 333 328 332 338 338 333 334 335 335 335 335 337 337 338 339
315 315 315 315 315 315 315 315 315 315 316 316 315 315 316 316 315 316 316 317 318 319 321 322 325 316 310 305 300 300 312 329 335 334 333 330 325 324 322 324 316 313 311 307 306 306 308 312 313 313 308 315 306 309 309 313 311 310 310 306 305 324 325 330 329 332 333 330 334 333 328 326 327 324 332 335 337 336 333 333 334 334 334 335 336 336 337 338
315 315 315 314 315 315 315 315 315 316 315 315 315 315 315 315 315 315 317 317 318 320 321 323 325 316 311 303 306 312 314 322 335 334 329 327 326 323 323 325 319 316 314 310 308 307 307 309 313 309 312 311 308 304 310 313 311 310 308 305 301 320 318 327 332 333 331 331 334 330 311 316 324 328 332 337 335 334 331 331 333 333 334 334 335 335 336 337
315 315 314 314 314 314 315 315 315 315 315 314 314 314 314 314 314 316 317 317 319 320 322 326 320 315 308 303 311 317 316 316 335 332 328 333 322 322 323 323 321 317 316 311 310 309 308 309 311 311 313 309 306 312 310 309 307 304 305 300 298 309 308 325 328 331 327 332 333 330 311 311 321 328 332 336 335 332 329 331 332 333 333 333 334 335 335 336
315 315 314 314 314 314 315 315 315 314 314 314 313 313 313 313 316 318 319 319 319 322 325 326 316 311 306 309 318 322 338 320 328 328 333 326 318 319 321 321 319 317 315 312 309 311 310 310 311 307 305 312 312 309 304 302 300 300 301 296 293 302 297 320 328 330 325 329 333 325 313 314 319 327 332 335 334 333 328 330 331 332 332 333 333 334 334 335
315 314 314 314 314 315 314 314 314 314 314 313 311 312 314 316 318 320 321 319 322 324 324 314 313 312 306 303 313 333 314 310 309 320 333 326 318 315 322 321 319 315 313 314 314 313 311 310 305 305 307 312 309 304 301 299 297 297 298 294 297 294 304 318 325 330 331 329 330 325 312 315 319 327 332 334 333 332 328 329 330 331 331 332 332 333 334 334
314 314 314 314 314 314 315 314 314 314 313 312 311 312 315 321 322 323 324 324 322 324 318 314 316 315 301 312 318 312 309 309 309 309 325 328 317 314 320 317 315 312 310 310 311 311 310 308 312 312 309 305 304 302 300 295 294 295 295 296 296 296 310 312 322 328 329 328 322 327 319 316 319 327 331 333 333 330 328 328 329 330 331 331 331 332 333 333
314 314 314 314 315 315 314 313 313 313 312 310 310 311 312 325 326 323 322 322 322 321 315 315 315 306 301 307 301 302 308 309 307 305 311 315 311 319 315 311 310 310 308 307 307 305 309 305 311 302 303 304 303 299 296 292 295 296 294 293 294 293 300 311 316 322 327 327 323 324 322 321 321 327 330 331 333 330 328 328 329 329 330 330 329 331 332 332
314 314 314 314 314 314 314 313 313 311 311 311 311 316 319 321 308 314 314 315 305 303 302 305 304 295 292 304 306 308 309 311 306 305 304 307 307 311 310 311 310 307 304 304 305 305 310 306 307 302 300 299 299 301 297 299 297 296 297 295 295 296 294 296 306 313 327 323 321 322 319 321 323 324 328 330 332 329 329 329 329 329 330 330 329 329 331 332
315 314 314 314 314 314 313 313 312 310 310 307 305 306 301 297 292 295 299 310 303 301 304 304 310 311 307 305 306 309 311 305 303 303 304 306 307 303 302 307 307 307 304 301 304 305 309 300 299 299 299 300 300 300 302 300 300 300 299 297 296 297 296 298 299 302 329 323 321 322 322 322 323 322 327 329 330 329 328 327 327 328 329 329 329 329 329 331
314 314 314 314 313 313 313 312 311 310 309 306 304 299 296 297 291 290 296 297 302 304 303 304 311 307 302 305 306 302 299 300 300 301 305 319 303 303 300 303 301 301 303 303 305 310 309 300 300 301 303 303 302 301 301 301 301 301 298 298 296 297 296 298 299 301 320 322 320 322 321 321 322 322 326 329 328 327 327 327 327 328 329 329 329 329 329 330
314 314 314 313 313 313 312 311 310 309 308 302 304 300 301 302 303 302 299 293 298 299 300 302 302 302 303 302 307 304 300 296 298 301 306 306 302 299 299 300 298 300 301 302 303 303 301 299 301 304 305 304 304 301 301 301 300 299 299 296 296 294 297 300 300 300 311 322 316 318 318 319 321 321 325 327 327 328 329 329 328 328 328 328 329 329 330 330
314 314 314 313 313 312 311 310 309 308 305 304 303 302 305 309 307 304 302 297 294 298 299 299 299 298 299 301 302 305 297 294 296 300 303 305 301 299 300 298 298 297 300 301 298 296 297 298 302 305 304 303 303 301 300 299 299 298 297 296 294 295 296 292 297 299 318 319 313 315 314 316 319 321 323 328 328 329 330 330 330 330 328 328 329 330 330 330
314 314 314 313 312 311 311 309 308 304 303 304 304 306 310 308 306 303 298 292 291 296 299 299 300 299 297 299 301 298 295 297 298 299 313 302 298 299 300 298 298 299 298 298 297 298 297 301 303 304 303 303 302 301 300 298 297 296 298 296 295 297 296 297 297 298 300 314 317 312 309 308 314 315 319 325 330 329 329 330 330 331 331 331 332 331 332 331
314 314 314 313 312 311 308 307 303 305 305 304 305 308 309 310 308 303 298 292 291 292 301 300 304 301 301 304 302 300 296 297 297 301 310 302 300 300 299 301 299 296 296 298 298 297 297 301 304 302 301 301 301 299 298 299 296 293 296 299 298 296 297 297 297 297 292 290 295 311 296 299 307 315 318 322 325 326 328 327 327 329 330 330 329 329 331 333
314 314 314 313 312 310 308 302 303 304 304 305 308 310 310 309 309 304 294 286 287 292 298 295 301 299 302 299 298 297 298 296 300 301 311 303 311 299 299 296 299 296 296 298 298 295 298 302 302 300 300 299 298 298 298 300 294 294 296 299 300 300 299 298 297 296 289 290 300 311 296 292 302 311 316 321 323 323 326 326 327 328 329 330 330 330 330 331
314 314 313 312 311 308 303 302 304 304 303 306 309 310 310 310 310 304 297 282 282 294 293 298 297 297 301 298 298 298 287 292 299 301 300 306 305 305 296 292 296 297 299 299 297 295 300 297 300 299 299 297 296 295 298 300 295 293 297 298 299 298 297 297 296 294 291 296 298 312 301 296 296 306 316 321 321 322 323 324 326 328 329 329 330 331 331 332
314 313 311 310 308 307 304 304 303 304 305 307 310 310 310 309 307 300 289 279 281 297 292 293 298 302 300 299 298 296 295 297 295 298 302 303 306 299 294 292 294 293 294 295 289 294 295 294 296 296 297 294 294 297 298 301 296 295 298 298 297 298 297 296 294 291 291 293 288 299 309 301 298 303 316 321 318 319 321 323 324 326 328 329 330 331 331 332
313 312 311 310 308 307 308 304 303 303 307 310 310 309 311 308 300 294 285 280 292 292 302 295 304 300 296 298 295 294 296 297 292 296 300 300 302 299 292 294 292 291 294 294 290 291 295 296 296 295 293 293 295 297 300 301 297 301 300 300 298 297 296 295 291 292 293 291 286 295 305 298 296 298 312 318 318 318 320 323 325 326 327 329 330 331 332 333
312 311 310 309 306 306 304 306 303 307 310 310 309 309 309 301 296 290 282 278 294 287 296 296 296 293 295 291 293 293 293 294 295 297 299 295 299 299 297 299 293 293 294 292 291 291 294 302 301 295 293 294 293 294 298 301 303 299 298 297 297 294 294 297 291 290 288 287 287 292 303 303 293 298 311 312 315 320 322 323 326 327 327 329 330 331 332 332
311 310 309 308 303 305 305 299 304 309 310 309 310 304 300 295 290 280 278 285 293 291 295 294 293 295 293 290 289 292 291 291 294 295 294 296 296 297 295 293 295 288 287 288 291 292 293 293 293 295 300 296 296 295 296 298 298 300 297 294 291 293 291 292 287 291 287 281 285 289 302 303 294 294 301 314 317 320 323 322 324 326 327 328 330 331 332 333
309 307 308 306 306 308 300 305 305 309 310 310 306 298 294 288 285 281 283 296 285 289 289 288 292 291 290 292 289 290 289 293 293 293 290 290 291 291 290 286 287 284 286 284 287 289 291 291 293 293 306 297 292 292 293 292 293 296 293 294 289 283 285 285 287 285 284 285 289 290 300 300 299 299 302 306 309 310 317 324 326 327 328 329 330 331 332 333
307 306 306 307 309 304 306 306 310 310 310 309 301 295 287 283 279 285 283 287 286 292 289 294 291 290 290 289 287 292 293 289 291 292 292 292 290 289 292 291 291 287 283 288 284 285 290 290 292 293 292 298 294 288 287 292 291 290 291 288 286 282 282 277 280 281 282 288 290 289 294 298 295 295 304 307 311 313 316 319 322 325 328 330 330 331 332 333
307 306 304 308 308 309 311 311 312 311 309 308 293 291 287 282 282 299 287 287 289 292 293 291 291 291 291 287 289 289 288 292 291 291 291 289 289 286 289 292 293 289 287 286 283 283 281 284 289 291 288 295 293 292 292 290 289 290 291 290 289 283 282 280 280 282 284 286 288 290 294 289 291 298 305 307 312 318 322 323 324 324 325 329 332 332 332 333
307 305 305 307 309 310 311 312 311 313 302 292 292 286 281 280 284 283 283 286 288 291 291 291 289 288 287 288 290 291 291 288 292 291 290 289 285 285 286 288 292 291 289 282 288 286 285 284 290 293 293 293 291 294 296 290 291 290 293 292 290 289 290 285 283 282 283 285 286 290 288 289 294 301 305 307 312 321 323 322 322 322 324 326 330 331 332 333
307 309 309 308 313 315 312 314 311 310 297 293 291 285 282 285 283 287 287 293 292 289 289 288 289 286 284 285 289 290 293 289 289 288 287 288 289 287 289 289 290 291 287 283 287 281 286 283 290 293 293 293 293 295 295 295 287 291 291 289 290 292 291 290 296 293 289 285 286 287 290 295 297 298 303 304 315 319 320 320 320 320 322 324 327 330 332 333
307 309 304 309 308 312 314 314 314 303 298 294 288 283 287 290 292 289 302 291 290 291 285 282 284 284 283 283 285 287 289 290 289 286 283 288 285 289 289 289 292 292 292 287 286 289 283 283 287 290 290 294 296 294 294 295 295 289 286 289 294 296 292 290 285 283 281 282 284 287 290 289 290 290 300 302 315 318 318 319 319 320 321 321 324 327 331 333
304 306 312 307 307 310 315 313 306 298 295 296 291 299 291 288 293 292 292 290 291 290 285 282 286 287 285 283 285 287 289 286 287 286 285 287 284 292 289 288 292 292 292 292 287 289 287 281 286 290 290 292 295 293 291 294 297 291 291 297 291 287 289 287 286 283 282 283 283 288 291 291 291 291 296 302 310 316 317 318 318 318 319 320 322 325 329 332
306 299 298 305 309 310 313 309 301 297 296 289 288 292 295 292 295 291 292 294 291 288 285 286 284 288 286 283 287 289 289 284 287 284 282 286 282 290 290 291 291 293 293 293 288 289 289 282 283 287 289 291 291 291 283 288 294 295 294 291 293 291 288 284 290 285 285 282 282 285 287 287 295 294 297 301 311 317 316 316 317 318 319 319 320 323 327 330
303 296 296 306 311 310 309 306 299 296 292 287 290 289 294 291 293 294 295 294 291 288 287 286 287 284 288 287 287 286 288 288 286 285 285 287 285 293 291 293 290 292 292 293 291 291 286 287 280 286 290 287 283 287 286 287 285 287 288 286 288 288 291 291 290 288 286 281 279 282 283 289 296 299 299 305 314 317 317 314 315 318 319 320 320 322 325 329
301 295 298 307 312 308 302 302 296 290 287 290 291 292 294 292 292 293 295 295 294 295 291 289 287 284 286 284 288 288 287 287 287 286 286 287 286 283 292 291 292 291 291 290 291 291 286 284 282 283 283 283 286 290 291 289 289 287 286 285 285 285 284 283 285 288 289 283 280 281 285 291 298 301 300 311 315 317 318 315 314 315 318 319 320 322 324 328
292 290 296 309 310 302 300 293 292 291 289 288 287 291 294 302 292 293 294 294 294 292 295 292 291 290 288 288 287 287 286 286 287 286 289 285 290 287 293 292 291 292 289 287 288 293 288 286 281 280 283 284 288 290 293 292 291 290 290 287 288 287 286 281 279 284 286 288 292 287 285 290 300 300 301 314 315 317 319 319 315 316 316 317 319 321 323 326
299 296 305 308 309 300 298 288 296 294 287 290 295 294 294 293 291 293 293 293 292 293 291 292 291 289 291 289 289 288 288 287 288 286 288 289 290 292 293 292 295 294 289 289 289 289 302 283 283 283 282 285 288 290 293 292 290 287 288 290 288 285 286 286 283 286 285 285 282 282 286 289 300 300 300 314 315 317 319 319 317 316 317 318 318 319 321 322
299 300 302 309 309 301 295 287 288 289 293 293 292 292 293 293 292 292 292 293 292 291 290 291 292 293 291 292 291 289 291 284 290 288 288 290 289 293 293 293 296 295 294 290 288 292 283 284 280 277 276 279 280 285 286 289 290 286 285 288 288 288 288 288 288 289 285 286 286 282 282 288 297 299 300 314 313 315 316 318 318 315 316 317 317 320 320 322
297 299 303 305 307 301 292 289 288 288 291 290 290 290 291 292 293 293 292 291 293 291 289 290 292 292 291 293 291 292 292 288 286 291 289 292 291 295 294 293 295 294 299 302 303 295 286 286 279 275 276 275 277 277 277 281 283 286 288 288 289 288 287 286 283 285 278 288 286 283 282 288 294 297 303 311 312 313 315 316 317 317 316 317 318 318 319 320
295 290 296 297 300 298 295 297 292 290 289 290 289 291 290 289 293 294 293 292 293 293 292 292 292 292 290 291 289 290 290 292 289 287 288 289 290 292 293 293 296 295 301 305 306 295 285 286 281 277 274 275 277 280 285 292 284 282 285 286 287 288 288 288 285 281 281 284 284 284 286 288 289 292 303 308 310 310 311 313 313 314 316 318 318 319 319 318
296 293 293 289 296 295 292 293 293 292 289 292 285 290 288 290 291 292 294 290 294 292 291 292 291 288 289 289 288 288 290 289 290 288 289 290 291 292 293 293 293 303 303 301 303 290 284 282 284 283 283 283 282 286 287 289 285 285 285 285 287 287 287 286 284 283 287 284 279 287 291 287 288 295 307 307 309 310 311 311 312 314 315 316 317 318 322 318
289 295 297 299 289 287 287 291 293 294 295 293 290 291 289 288 289 289 292 293 293 293 289 291 291 291 290 289 287 286 287 286 286 287 289 289 289 290 290 293 292 298 301 292 297 289 282 280 286 285 285 285 286 285 287 286 286 286 286 286 286 287 286 285 286 287 288 283 282 286 288 287 289 302 307 308 309 309 310 311 312 314 315 316 316 316 317 317
297 298 299 302 291 292 289 296 296 294 295 295 293 292 289 288 289 291 290 290 291 291 290 285 288 290 291 291 288 285 285 282 285 287 286 287 288 286 286 288 293 291 292 289 290 291 283 281 285 285 283 285 285 286 287 286 286 286 286 287 286 286 286 287 286 287 287 286 288 288 289 289 294 304 308 309 310 310 310 312 312 312 313 315 315 315 316 317
295 296 295 297 293 293 294 292 293 292 290 296 289 291 290 290 289 290 292 290 287 290 293 289 290 291 291 290 287 286 289 288 287 285 289 288 287 286 286 286 286 289 291 290 290 291 285 285 292 283 281 283 285 289 286 286 287 284 285 286 286 286 286 286 287 289 293 290 291 293 291 290 298 306 307 311 311 311 310 309 310 311 312 314 313 314 316 317
301 298 299 291 289 294 297 290 290 289 287 289 286 292 294 290 290 292 291 294 291 290 291 290 291 291 291 290 290 291 292 290 290 292 292 288 286 289 286 287 289 288 288 289 289 291 286 283 284 280 278 279 283 285 285 286 285 283 282 284 284 286 286 287 287 290 289 287 292 295 291 296 303 305 307 309 309 308 307 308 309 310 312 313 313 314 315 316
300 302 298 291 289 295 289 290 288 287 287 289 292 292 293 292 293 291 289 293 294 295 293 292 291 290 289 290 290 292 294 293 293 293 293 292 291 291 292 291 290 289 287 287 289 288 284 283 282 279 277 277 280 285 285 283 279 279 283 285 287 287 289 289 290 294 301 301 296 294 294 303 303 305 302 304 308 307 307 308 308 310 311 312 313 314 314 316
Wind_Speed
19 18 19 19 19 18 18 19 19 19 20 19 19 19 19 19 18 17 16 16 16 15 14 13 12 11 9 7 6 6 2 3 3 1 1 12 7 7 9 4 13 14 10 10 10 10 4 4 4 1 3 4 1 1 1 4 3 1 2 1 2 2 1 4 3 5 0 7 6 7 6 6 6 2 2 1 5 4 4 3 5 7 8 10 12 15 14 14
19 19 19 19 19 19 18 19 19 19 20 20 19 19 19 19 18 18 17 16 16 16 14 12 12 10 9 6 5 4 2 1 4 5 17 5 8 11 9 4 14 12 11 10 14 9 12 4 4 4 6 4 0 2 4 2 4 3 1 1 3 3 4 2 2 4 6 2 8 6 4 5 5 6 3 4 3 7 4 4 10 10 11 13 15 16 14 13
19 19 19 19 19 19 19 18 18 19 20 20 20 19 19 19 19 19 18 17 17 15 15 12 10 9 7 5 4 3 3 3 3 6 10 16 8 12 9 6 13 15 10 9 6 10 13 12 9 7 3 3 2 3 5 2 5 4 0 1 4 5 4 2 4 7 2 9 8 8 5 3 6 4 2 4 6 6 8 8 10 12 13 15 16 15 13 13
19 20 19 20 19 19 19 19 19 19 19 20 20 20 20 20 19 19 19 18 17 16 15 12 9 7 6 4 2 3 0 2 1 1 3 9 16 12 11 8 15 10 6 5 6 5 6 8 7 4 3 2 1 0 4 3 3 2 3 4 4 1 1 1 1 1 5 11 11 8 6 6 5 3 4 7 8 4 4 8 9 13 16 17 18 17 13 14
19 20 19 20 19 20 19 19 19 19 19 19 20 20 20 20 20 20 19 18 17 16 14 11 9 7 5 1 1 2 1 1 2 2 1 14 16 13 12 10 13 7 6 6 7 6 8 10 7 2 2 4 1 2 3 3 4 1 6 4 5 6 3 2 0 5 7 6 6 6 11 7 6 4 4 11 10 8 7 8 11 14 16 18 18 16 13 14
20 20 20 19 19 19 20 20 20 20 20 20 20 20 20 21 21 20 19 18 17 16 14 12 9 6 2 5 3 1 0 2 2 2 9 15 14 13 12 9 13 7 10 8 5 5 10 4 8 4 2 2 3 5 2 6 4 4 3 6 8 8 6 2 3 6 9 7 8 9 4 8 7 6 4 9 3 2 4 9 12 14 17 18 17 16 15 15
20 20 20 19 19 19 20 20 20 20 20 20 21 20 21 21 20 20 20 18 17 16 13 11 9 6 3 4 1 1 1 6 3 5 13 15 14 13 12 10 13 7 8 7 5 7 4 8 5 5 4 2 1 3 4 1 5 6 6 2 6 5 10 4 6 8 7 11 9 4 8 8 9 9 4 7 1 4 4 12 13 13 14 16 16 14 16 15
21 20 20 19 19 20 20 20 20 21 21 21 21 21 21 22 21 20 20 18 17 16 13 10 7 5 4 2 0 1 1 4 6 3 14 17 13 14 12 7 9 7 7 8 8 6 7 9 8 4 2 7 2 5 2 3 5 6 8 5 6 4 7 6 6 7 7 6 4 8 9 8 7 5 7 7 4 5 5 12 13 14 14 13 14 15 14 12
21 20 20 21 20 20 20 20 21 21 21 21 21 22 22 22 21 20 20 18 16 14 13 9 6 0 3 0 2 1 2 5 3 4 12 13 10 10 11 6 5 9 5 5 5 6 7 5 3 4 3 4 2 1 3 0 4 7 12 7 6 5 3 7 7 8 9 5 8 8 5 4 3 6 5 6 4 6 7 12 14 15 15 14 14 14 15 14
21 21 21 21 21 21 21 21 21 21 22 22 22 21 22 22 21 21 19 18 16 13 11 9 7 5 2 1 1 1 2 0 2 6 10 12 10 10 5 7 8 8 8 4 4 7 5 5 6 4 4 1 1 3 0 2 4 1 4 6 7 9 3 8 11 7 7 6 9 8 5 3 2 4 3 5 6 7 8 13 14 16 16 14 13 12 13 14
22 21 22 22 22 22 21 22 21 22 22 22 22 23 22 23 21 20 18 18 15 13 10 7 7 5 0 1 2 2 2 3 1 4 10 12 12 9 8 9 8 7 7 4 5 6 4 6 3 3 2 2 0 2 1 3 2 7 5 5 5 7 3 8 7 10 7 4 5 6 5 3 1 3 4 10 8 9 12 14 15 15 15 14 14 13 12 11
23 23 23 22 22 22 23 22 23 22 23 23 23 22 22 22 22 20 18 16 13 11 9 7 8 3 0 1 2 4 2 2 3 3 7 13 9 10 9 10 9 9 9 8 5 5 4 4 2 1 1 0 0 3 2 1 3 5 3 4 6 3 4 5 9 8 7 4 6 9 8 1 3 5 2 9 9 9 13 14 15 15 14 13 14 11 11 11
23 24 23 22 23 24 24 24 23 23 24 24 23 22 22 22 21 20 16 13 9 8 8 8 6 2 1 0 8 9 1 0 5 6 4 3 4 4 3 5 8 8 9 10 7 5 6 2 2 2 0 0 0 1 3 5 5 3 0 2 4 2 2 3 2 4 4 4 9 9 3 7 11 6 0 10 11 9 12 13 14 12 13 12 12 11 11 11
24 24 24 24 24 25 25 25 25 25 25 25 22 22 22 21 19 16 12 11 8 4 5 8 4 2 1 4 6 3 5 2 5 5 4 2 6 2 4 3 2 2 2 3 3 4 4 2 3 0 1 1 2 2 5 3 2 2 1 3 0 2 3 4 3 8 3 3 10 2 1 5 5 8 2 8 12 13 13 13 14 13 12 12 12 11 11 12
25 24 25 24 24 25 25 26 25 24 26 24 23 22 23 18 14 9 6 5 6 5 6 6 1 1 0 6 5 8 3 5 5 3 8 6 4 3 4 5 4 3 2 1 2 5 6 2 1 2 2 1 1 2 3 2 3 2 1 1 3 1 4 1 3 10 7 3 9 2 3 6 2 9 7 8 11 13 12 13 14 14 13 13 12 12 12 12
21 22 24 25 24 25 24 22 22 24 25 25 22 24 18 12 8 0 7 7 8 9 5 1 2 1 1 3 3 5 3 0 2 6 6 8 6 2 5 6 5 3 3 3 1 1 3 5 2 4 2 2 0 1 3 4 3 4 1 1 1 2 1 3 2 6 3 5 6 7 4 4 1 5 9 8 11 14 12 12 14 14 14 13 12 11 11 10
20 21 20 23 26 25 26 22 23 24 21 21 25 18 14 6 5 10 11 11 6 4 2 1 1 0 1 2 1 1 0 2 2 2 3 4 6 6 10 5 3 4 3 0 2 1 3 3 1 1 1 2 1 2 1 2 3 2 2 1 1 1 1 1 0 5 3 9 5 8 4 3 1 3 9 9 11 13 12 14 14 14 13 12 11 12 12 12
21 21 22 25 25 26 25 22 24 23 20 22 20 10 6 10 10 12 10 6 3 2 2 2 2 0 5 4 0 2 0 4 5 1 5 3 6 7 6 3 4 6 3 2 3 3 2 3 1 5 0 1 2 1 4 2 4 1 1 3 2 3 0 3 5 6 6 5 7 7 8 10 2 4 7 10 10 13 13 14 15 14 13 13 11 12 13 13
24 24 23 24 24 25 25 23 22 22 19 20 14 8 1 5 2 2 5 2 1 0 1 0 1 0 3 2 3 6 3 6 2 4 1 7 1 3 2 4 10 9 2 3 0 3 1 2 3 2 5 1 3 5 6 2 3 4 2 2 1 2 2 1 2 2 10 7 6 6 9 12 9 4 6 9 11 13 12 11 11 13 13 12 12 12 13 13
25 25 23 23 22 23 26 22 21 20 20 10 7 3 1 2 2 1 1 1 2 3 1 1 2 2 4 4 3 4 4 2 1 1 2 1 9 4 2 3 2 4 4 3 3 3 4 5 6 6 4 4 3 6 6 5 3 2 2 2 1 1 4 3 3 4 9 3 7 8 11 10 7 6 9 10 9 9 10 12 11 12 13 13 12 12 14 14
22 23 23 22 21 20 21 21 20 20 20 5 2 2 3 1 2 2 5 6 3 3 3 3 6 4 4 2 3 3 4 2 1 1 1 2 5 8 1 2 3 2 0 4 7 1 4 5 7 4 6 6 5 4 1 2 0 1 1 1 1 1 4 3 3 1 4 7 7 9 7 9 8 4 7 9 11 12 13 13 13 14 14 13 14 13 14 13
23 23 22 21 21 20 21 20 20 20 15 2 0 3 2 1 1 2 1 4 4 3 3 4 1 4 4 5 4 3 2 1 2 1 1 2 1 4 1 3 3 5 0 1 5 3 3 7 2 6 6 2 1 2 2 2 1 1 1 1 1 3 4 8 3 4 2 7 6 1 7 11 10 7 8 12 14 14 15 16 17 16 15 13 13 14 12 10
24 23 22 21 20 20 20 20 19 19 5 1 3 2 1 4 1 4 2 0 4 2 0 0 1 3 5 4 1 6 2 1 1 1 2 2 1 2 3 3 4 3 1 2 6 4 3 5 7 5 4 3 0 2 3 2 1 2 0 0 4 3 2 4 1 4 3 5 4 4 7 8 5 5 9 11 14 12 13 12 9 10 14 15 16 15 13 13
26 26 23 21 21 19 20 19 20 5 1 1 1 2 1 3 3 2 2 1 2 5 2 4 3 2 4 1 1 3 2 1 2 2 2 4 4 1 4 3 3 1 3 3 5 6 6 2 1 3 4 4 3 1 2 1 4 1 3 3 2 1 2 6 4 3 1 6 2 1 1 4 4 5 5 7 11 9 9 8 8 8 10 11 8 9 11 14
23 25 24 21 19 19 19 17 3 1 2 0 2 3 2 4 2 0 3 2 1 2 2 0 1 3 2 1 0 0 1 0 2 1 1 6 2 3 1 2 3 2 2 2 4 1 4 6 2 3 2 3 2 2 3 4 2 3 4 8 6 4 4 4 3 5 6 4 3 4 2 4 4 8 10 7 9 11 9 12 13 13 12 10 11 13 12 12
22 22 23 19 19 18 17 2 1 2 2 2 1 2 2 4 1 1 3 2 1 2 1 1 0 0 1 1 2 2 2 0 0 1 1 2 4 3 1 1 2 4 3 4 4 2 4 1 3 3 3 3 2 3 3 6 3 1 5 7 8 7 5 4 1 2 2 0 3 1 4 6 3 4 4 6 10 12 9 14 16 14 13 13 13 13 13 13
22 20 20 17 16 13 3 1 2 2 1 1 2 5 4 4 1 2 1 3 4 1 0 1 1 0 0 1 1 2 2 2 2 4 4 5 1 1 4 2 1 1 3 2 2 2 1 1 2 2 3 3 2 3 4 7 6 3 3 5 6 6 5 4 3 5 5 1 3 1 3 2 6 5 3 5 8 10 11 14 15 15 14 15 14 14 14 14
23 20 16 14 10 6 2 4 5 1 0 1 4 6 5 4 0 3 3 3 0 1 1 1 0 2 0 1 4 0 2 0 2 2 1 4 1 1 3 4 4 4 1 5 6 3 2 0 2 1 1 2 4 6 4 7 5 5 3 7 6 7 7 3 4 5 2 1 6 2 1 0 2 4 2 9 8 10 16 16 15 15 16 15 16 16 16 16
19 18 15 11 10 7 2 2 1 1 1 3 6 4 4 1 3 3 3 2 1 1 3 1 1 0 3 1 2 1 1 2 2 2 5 3 9 1 3 0 2 3 3 4 6 1 2 1 2 3 4 4 5 4 6 10 4 6 5 3 3 3 2 4 4 2 1 1 4 3 2 1 5 5 1 4 9 12 16 15 13 13 16 16 16 16 16 14
19 16 13 8 4 2 0 1 4 5 3 5 6 5 1 2 2 1 2 2 1 1 0 1 1 1 1 2 2 5 5 4 2 2 7 3 10 7 3 0 1 1 1 5 1 5 2 5 5 5 1 2 2 3 6 10 11 3 5 3 1 2 2 2 3 3 2 2 6 7 5 4 2 4 6 7 8 14 8 6 8 8 11 15 16 17 16 15
19 15 11 3 2 2 4 1 5 2 3 4 5 2 2 5 2 3 3 1 2 1 1 1 1 3 1 3 4 5 5 4 6 4 6 6 12 11 9 1 8 5 5 6 2 6 5 4 3 1 1 4 0 1 2 0 1 2 1 3 5 1 4 2 2 2 3 3 8 2 7 5 4 4 5 8 12 9 7 12 14 14 17 18 17 17 18 17
19 15 7 4 3 0 2 2 1 1 3 4 3 4 3 0 6 6 1 3 1 3 1 2 1 2 5 5 6 7 1 4 5 5 6 4 10 11 7 4 3 4 1 4 2 3 6 4 3 5 3 10 4 2 2 5 6 5 4 6 7 1 2 2 1 1 3 4 3 3 6 4 5 2 3 8 11 12 9 8 10 15 18 17 16 17 16 16
21 16 5 5 5 1 5 2 2 3 4 2 2 3 3 6 4 3 1 3 0 0 3 1 2 4 1 7 3 5 7 5 4 5 3 5 7 3 3 7 2 2 4 1 1 4 1 2 7 10 5 6 4 5 6 2 3 5 4 6 5 2 1 3 1 1 2 6 4 2 2 2 2 2 5 10 9 9 10 10 9 8 11 12 14 15 15 15
20 13 3 4 7 6 4 2 0 4 3 2 3 7 6 9 1 3 1 1 1 3 3 2 2 7 10 5 3 0 9 5 6 4 4 1 8 7 8 11 13 7 6 1 4 0 4 2 6 8 3 7 3 3 1 2 3 3 1 2 6 5 3 3 3 5 6 7 1 3 3 4 5 3 5 7 6 10 12 13 12 12 8 9 10 10 12 13
19 2 3 2 3 7 10 6 3 1 1 4 9 7 8 1 1 1 3 2 2 2 2 4 2 4 7 5 5 3 2 2 3 8 11 8 5 3 6 8 9 3 0 3 1 2 1 2 3 3 4 3 4 3 0 2 0 1 1 3 6 1 3 1 5 4 4 3 2 1 2 2 4 8 5 8 8 14 16 17 17 17 17 9 9 11 13 14
7 1 1 2 2 2 3 3 3 3 2 3 11 9 7 1 2 1 1 1 1 1 5 3 9 8 2 6 3 6 9 5 4 5 4 5 3 6 4 2 6 6 4 4 1 2 1 2 4 9 4 3 4 2 4 1 3 2 3 2 3 3 2 2 1 1 2 5 4 1 3 5 4 1 15 17 16 19 19 19 18 17 16 15 5 10 13 14
5 5 4 5 3 2 2 3 4 2 2 8 10 6 1 0 1 2 3 1 2 0 3 4 6 3 3 3 3 7 4 4 4 4 3 2 4 7 5 3 2 5 3 2 2 0 1 1 3 6 9 5 3 2 1 4 1 1 2 3 3 2 4 1 2 2 2 4 2 3 1 5 8 1 13 14 19 21 18 19 16 17 17 16 14 10 8 13
4 2 2 4 5 4 2 3 1 6 4 13 8 8 0 2 4 1 3 3 2 3 5 3 1 4 1 3 7 5 6 5 6 4 2 4 2 2 3 3 4 5 7 2 2 2 1 3 2 1 4 9 8 2 2 5 7 4 5 1 4 2 1 2 3 1 2 1 3 1 1 3 5 5 10 17 17 18 17 16 18 19 19 17 16 17 15 11
3 3 3 6 6 5 0 1 7 7 10 9 3 5 2 1 2 4 5 1 1 2 6 3 3 4 1 3 1 5 7 4 1 3 3 3 4 3 3 1 3 7 7 5 5 1 3 1 2 5 5 5 4 7 4 8 9 4 2 5 3 4 2 3 0 1 4 3 3 0 4 3 2 4 8 11 11 10 14 15 15 15 15 16 14 15 15 13
4 2 4 5 8 6 4 4 8 9 8 7 1 3 1 2 3 6 11 4 4 4 1 4 4 4 6 4 1 3 5 6 5 2 5 3 3 0 5 4 1 6 3 5 4 0 0 1 1 7 9 3 5 5 2 5 5 8 10 7 6 3 2 1 2 2 0 4 3 5 2 1 2 3 6 8 13 11 10 13 14 13 15 14 16 15 16 15
1 3 2 7 12 6 3 11 11 6 5 0 1 2 4 2 4 6 8 11 4 5 5 3 2 4 0 2 7 4 3 5 5 3 2 2 2 1 3 3 3 5 2 3 8 5 2 4 2 4 7 6 1 1 0 6 6 5 3 6 3 5 3 2 1 2 2 4 2 5 4 1 1 3 3 5 8 9 9 11 12 14 15 18 16 19 18 19
3 4 5 10 11 4 10 10 4 1 4 6 3 2 2 5 4 7 5 5 7 4 3 4 4 5 4 4 1 3 3 4 4 3 4 4 2 2 4 7 3 1 3 2 1 3 2 2 4 4 1 2 1 2 2 2 5 7 8 6 5 1 2 3 5 1 2 2 2 1 6 3 3 3 3 4 7 8 10 11 12 12 13 15 18 18 21 18
5 1 4 6 8 3 14 6 3 5 3 1 2 5 3 3 1 4 6 6 4 4 3 6 3 2 4 2 3 3 3 5 3 2 1 1 3 3 6 7 4 4 3 3 1 1 3 4 3 2 5 5 4 3 3 5 2 4 6 7 7 6 4 1 2 2 3 4 4 3 2 5 4 5 5 6 6 7 8 11 11 12 11 14 16 21 20 22
0 1 6 7 11 2 11 5 3 4 3 3 5 2 5 3 5 6 5 4 3 3 3 2 4 5 3 3 3 2 1 4 3 3 3 2 2 4 7 7 6 4 4 1 1 3 1 1 3 2 2 2 3 2 2 3 5 4 2 5 4 5 6 1 2 2 5 1 1 3 5 2 2 6 6 10 10 12 13 13 11 11 11 12 16 14 17 20
1 2 1 7 10 9 5 2 6 6 3 3 3 7 5 4 3 2 2 4 3 2 1 3 1 0 3 1 3 2 5 2 3 3 2 1 0 3 7 8 6 4 5 3 3 0 6 0 1 3 4 4 3 3 3 5 4 3 1 6 7 8 9 7 1 3 3 1 1 1 4 5 4 4 9 12 12 11 11 12 12 11 11 12 11 14 16 15
3 2 6 6 8 7 5 1 4 5 3 3 6 2 2 2 2 6 5 4 3 3 5 1 0 4 3 5 6 6 7 7 4 2 1 1 2 2 2 8 7 4 8 11 7 4 2 1 4 3 4 5 2 1 2 0 3 3 5 4 6 5 5 2 3 4 1 1 1 4 3 7 11 11 11 13 11 13 14 15 14 14 15 12 11 12 12 14
2 4 1 2 6 7 3 5 3 3 1 2 3 1 4 2 1 3 6 2 4 3 2 5 2 2 2 5 3 4 4 4 7 6 2 1 1 1 5 4 6 10 11 6 8 3 4 5 2 5 3 2 4 0 2 1 0 1 4 4 5 5 4 4 3 1 2 3 4 1 1 6 7 8 10 10 10 9 10 10 12 12 12 12 12 11 16 18
3 1 1 1 2 1 5 4 4 6 3 4 1 1 2 3 4 1 3 2 0 3 2 4 7 4 3 3 3 4 1 3 2 2 1 1 1 4 3 5 4 8 6 2 4 3 3 3 1 3 1 2 0 1 3 2 1 2 2 2 4 4 4 3 2 3 1 2 6 2 2 5 4 8 8 7 7 8 9 11 10 9 10 14 14 14 15 16
4 0 0 1 2 1 1 0 2 7 8 3 2 3 2 4 4 0 1 2 3 4 3 2 3 4 3 2 4 2 1 2 2 1 1 0 1 1 1 2 1 6 5 3 3 1 4 1 1 0 1 2 2 2 1 3 2 4 4 5 4 3 4 3 4 5 3 4 5 6 5 4 2 9 7 6 5 6 7 6 9 13 14 14 13 14 14 14
2 1 1 4 5 2 3 2 2 5 6 3 3 1 1 1 2 3 1 2 1 1 2 6 1 3 4 5 3 3 1 3 4 2 1 2 1 0 0 1 1 3 3 2 1 2 4 1 2 1 2 0 1 3 1 0 1 3 5 6 6 4 3 3 1 2 3 2 2 3 1 1 1 6 6 3 3 3 7 13 11 10 13 13 13 13 13 13
2 1 1 2 4 3 3 3 3 3 3 4 5 0 2 1 1 0 1 0 1 0 1 7 5 3 2 5 5 2 2 3 3 1 4 4 3 4 2 2 2 1 2 1 2 2 5 1 2 3 3 2 1 2 4 2 2 3 3 3 3 1 0 2 2 1 1 3 5 3 4 4 6 8 7 3 6 9 9 9 9 9 11 12 12 12 12 13
2 0 2 2 3 3 2 1 2 3 4 1 1 0 1 0 1 0 2 2 1 1 3 7 3 7 2 4 2 0 2 5 5 5 5 6 2 2 1 2 5 1 1 1 0 1 1 3 1 0 2 2 3 2 4 4 3 3 1 3 1 2 1 2 3 2 0 1 3 1 0 3 5 6 7 8 7 7 7 8 9 10 10 10 11 11 12 12
Wind_Direction
346 344 342 342 342 341 339 336 336 335 334 333 333 332 330 330 330 329 328 326 322 319 321 324 323 319 321 319 311 308 12 339 339 291 214 241 186 214 171 240 175 189 207 120 122 115 90 100 127 127 130 129 221 173 196 208 247 91 210 183 298 225 224 211 178 192 208 141 150 170 184 143 139 154 104 111 66 112 131 86 92 57 71 102 120 124 138 141
344 342 341 340 341 340 338 336 335 333 333 332 331 330 329 328 327 327 326 324 322 319 320 324 324 321 319 319 303 312 313 265 278 249 236 206 186 186 192 214 153 168 143 131 152 149 130 136 159 128 132 142 328 190 137 227 172 220 95 66 256 198 235 195 208 154 141 188 151 169 181 160 142 142 189 120 134 141 111 97 101 90 97 110 120 135 147 142
342 343 340 339 341 338 336 335 333 332 331 330 329 327 327 326 324 324 324 322 319 318 318 324 323 323 325 317 304 94 77 297 271 269 262 220 180 183 182 170 139 155 156 151 168 149 152 162 154 129 135 94 161 183 174 242 156 218 134 247 246 224 259 272 186 176 220 133 149 166 178 150 140 131 152 140 149 149 148 140 120 125 131 134 135 143 150 144
341 342 340 338 338 337 335 335 332 331 331 328 326 326 323 323 322 322 322 320 317 316 317 320 322 322 328 319 254 148 248 285 303 262 272 157 168 163 177 149 145 135 94 114 133 118 91 106 131 126 114 88 166 219 177 222 166 165 149 209 233 255 292 324 120 199 118 151 155 161 144 128 163 134 144 138 126 195 177 174 152 147 145 144 147 150 153 150
341 340 338 337 337 335 335 333 331 330 329 326 324 323 321 318 320 319 318 316 314 314 314 314 319 318 324 253 236 152 349 75 196 243 180 136 153 157 163 150 147 134 130 130 89 90 124 135 142 126 97 139 118 136 252 255 231 318 230 252 280 307 299 282 116 126 134 124 137 139 153 165 118 118 157 160 171 190 179 163 141 148 148 148 153 155 152 155
340 340 337 336 337 333 332 332 330 328 327 323 322 320 318 316 317 316 313 313 311 311 309 311 312 313 331 122 101 116 141 87 273 298 128 132 141 150 151 147 146 124 119 123 124 126 119 120 135 132 126 102 171 174 232 206 183 268 274 248 241 246 248 239 151 156 141 145 155 163 160 115 154 168 176 182 168 101 113 138 144 151 156 155 151 152 157 160
340 338 335 337 334 331 331 330 328 325 323 321 318 317 315 314 313 312 310 309 307 306 305 308 308 298 155 117 115 357 100 270 313 253 128 129 134 138 140 135 136 120 121 114 121 139 151 142 139 156 122 100 192 208 248 260 183 223 262 251 261 219 239 198 171 157 161 154 169 138 132 150 155 160 170 181 176 138 93 134 145 148 150 152 155 161 162 163
337 336 335 336 333 330 329 328 325 323 321 319 316 315 314 312 310 308 306 304 303 302 302 301 303 299 134 91 103 350 45 254 245 271 142 125 129 137 123 102 132 128 122 147 148 144 136 151 160 144 96 154 213 175 275 210 202 224 258 247 261 237 233 181 169 160 160 134 101 130 152 177 174 149 137 195 159 153 117 135 141 144 151 160 157 157 160 161
336 334 335 334 331 330 328 326 323 320 319 317 314 313 312 309 307 305 301 298 301 298 294 292 289 330 132 161 116 6 240 236 245 155 134 127 131 122 126 116 145 140 141 130 158 152 132 198 137 169 190 178 204 341 245 210 287 210 234 261 274 269 227 170 156 160 160 130 134 143 163 126 90 101 177 176 175 162 132 141 144 147 156 165 166 161 164 166
335 333 334 332 329 328 326 324 321 319 317 315 313 312 310 306 303 301 297 296 295 294 289 281 277 211 106 117 55 121 253 16 51 120 130 129 121 128 113 126 148 134 126 171 130 151 172 182 161 185 116 186 136 225 302 151 246 218 254 251 261 268 218 173 156 162 157 137 155 147 143 104 171 148 221 192 178 150 138 147 152 155 163 166 167 163 167 166
335 334 333 331 329 327 325 322 321 318 316 313 313 311 308 305 301 297 294 291 289 287 281 270 243 157 206 164 117 194 298 86 25 113 130 131 129 139 171 155 152 140 132 144 170 170 171 148 195 120 347 206 224 269 267 230 326 305 280 306 300 311 191 158 143 149 139 133 165 121 94 58 239 303 225 171 169 157 148 153 158 163 164 168 169 165 167 169
334 334 332 330 329 327 324 322 320 318 316 315 313 310 306 303 298 293 290 286 283 274 270 252 205 161 115 74 161 216 339 148 109 96 123 138 158 181 164 158 160 154 145 159 197 199 182 168 147 145 166 317 114 308 283 276 283 275 332 338 314 12 54 149 156 168 157 115 151 120 79 265 229 224 241 162 152 157 152 159 163 166 168 166 172 166 167 170
333 333 332 330 328 327 325 322 320 318 317 314 313 307 303 301 294 290 282 281 272 254 243 236 185 176 159 19 233 233 277 179 117 107 98 78 84 60 126 169 171 161 163 156 183 195 214 179 88 101 266 73 219 174 291 325 291 305 327 167 350 4 3 185 115 152 141 134 149 157 163 235 223 219 155 149 153 152 154 163 166 168 170 169 173 172 170 169
332 332 331 330 329 327 324 322 320 320 318 317 313 308 305 299 292 283 273 250 247 252 192 210 141 164 132 228 272 242 227 152 103 97 144 134 82 69 105 113 109 82 78 113 154 160 196 216 65 110 208 154 288 319 340 319 11 206 268 53 174 63 285 179 163 157 129 144 167 217 266 286 225 197 184 162 154 162 166 169 170 170 173 172 174 174 175 178
332 331 329 330 328 326 324 322 320 319 321 319 316 313 311 304 295 282 253 210 206 192 174 133 66 138 57 272 258 278 157 100 146 209 171 136 116 81 132 119 135 132 130 169 130 175 177 112 46 33 273 270 6 353 326 357 353 348 43 297 319 124 286 226 140 172 154 156 185 141 310 251 248 178 162 171 164 166 169 173 173 173 176 176 175 176 180 184
327 327 328 327 327 327 325 322 320 320 323 321 321 321 317 307 293 243 139 146 153 154 150 92 213 188 95 309 133 107 81 124 265 192 189 144 156 155 150 126 121 108 121 242 212 157 163 133 168 194 298 10 129 247 343 23 339 355 79 242 323 53 321 106 242 181 60 119 191 195 213 316 346 147 155 165 171 171 170 175 177 176 179 177 178 178 182 180
327 325 324 324 327 327 326 322 320 322 324 323 325 326 323 300 102 113 116 119 131 138 141 143 139 217 86 238 273 83 251 260 199 79 159 213 150 131 115 110 114 130 148 175 164 9 147 150 200 118 2 222 155 106 72 9 332 322 12 128 235 97 138 125 9 178 125 145 189 232 261 230 315 188 152 171 176 174 177 178 179 180 181 181 178 181 183 186
327 325 324 326 326 327 325 322 321 323 326 329 324 320 312 87 99 92 73 68 112 152 242 237 173 132 287 321 134 205 261 285 326 153 161 178 139 139 128 131 101 123 134 84 58 154 175 179 102 184 20 77 123 83 124 221 187 206 14 33 345 346 73 171 146 209 145 182 182 206 240 264 292 144 170 173 182 178 184 180 181 183 183 182 180 184 187 188
327 326 324 325 324 326 325 323 322 322 329 331 312 323 289 271 358 93 94 129 100 12 21 285 111 95 175 192 301 303 250 210 235 151 189 124 161 128 72 93 123 122 143 92 247 140 136 81 48 98 218 128 182 164 167 201 139 129 129 131 134 39 302 48 263 230 175 179 213 189 214 238 231 164 179 177 186 185 186 182 182 185 186 185 182 185 189 192
327 325 323 323 322 322 323 323 321 322 332 347 350 17 3 19 4 334 335 77 209 197 170 221 195 297 302 285 284 259 280 57 150 298 140 218 125 143 66 107 55 65 112 139 144 214 139 164 180 185 169 195 207 180 188 185 159 105 93 109 123 250 286 277 260 246 191 148 223 215 226 234 241 184 182 186 179 189 183 187 188 189 188 190 187 185 190 194
324 325 323 322 320 322 320 322 321 320 330 314 260 88 70 345 55 307 318 274 230 262 247 239 197 206 253 300 283 5 27 319 52 291 197 112 106 129 221 54 41 68 206 158 144 231 99 184 225 176 186 184 198 197 163 83 84 186 92 66 331 136 281 240 235 266 188 174 236 225 238 249 245 209 184 175 179 193 191 191 193 193 192 192 191 188 189 194
325 324 323 320 321 321 320 320 321 321 324 181 270 86 157 158 231 208 111 327 322 271 245 260 325 294 307 264 226 146 129 9 4 344 310 135 37 132 266 99 123 163 328 123 70 129 184 210 184 194 202 172 125 141 143 177 142 86 192 116 9 274 248 282 285 311 228 181 270 172 227 248 238 207 187 179 186 196 198 196 195 189 190 193 195 194 186 175
326 324 322 323 319 321 321 318 320 321 313 12 52 94 44 294 301 246 155 352 281 273 184 353 265 268 295 263 255 128 103 176 146 282 223 95 131 166 139 87 130 145 50 79 142 126 198 289 230 222 134 151 280 129 114 71 77 157 90 94 224 238 55 313 312 355 88 167 222 209 203 251 260 212 200 193 188 198 203 202 198 196 195 197 197 193 187 185
325 325 325 322 321 321 320 322 312 308 18 47 195 93 270 308 329 57 91 190 294 312 194 223 170 200 239 29 199 117 137 254 126 201 264 106 138 187 91 140 112 82 185 133 133 146 191 230 211 143 149 158 215 97 106 100 279 280 176 179 150 154 214 177 259 349 147 256 216 81 25 310 223 211 218 201 192 194 195 197 206 209 215 211 205 203 196 192
323 326 326 322 321 323 321 321 2 351 305 28 227 245 276 312 8 197 98 349 12 303 220 336 159 251 241 301 25 312 248 19 237 225 300 103 120 86 202 182 106 202 172 175 111 96 293 268 145 114 118 131 163 262 209 139 246 324 221 195 191 173 198 264 318 8 18 342 282 161 6 295 271 222 201 175 178 197 183 193 204 204 207 201 203 205 202 202
323 323 325 321 322 330 313 359 294 17 345 113 125 317 296 308 14 156 97 83 52 273 357 216 107 206 77 274 21 116 58 102 245 279 75 209 155 136 103 52 116 206 157 134 166 181 204 278 139 184 161 155 153 200 230 151 179 99 273 186 172 175 199 231 283 45 350 138 320 162 147 267 330 228 218 184 188 192 187 198 203 203 201 202 206 205 201 198
325 322 323 323 329 342 1 155 317 282 61 305 299 323 325 308 357 108 52 3 64 284 114 242 56 270 327 277 114 66 76 218 320 23 33 344 337 27 123 232 10 38 143 145 56 262 126 323 143 122 137 141 136 251 234 152 135 227 236 148 144 166 187 223 183 166 227 248 299 54 135 211 312 299 204 183 182 196 204 206 204 202 200 202 207 205 203 200
323 323 322 323 333 357 209 323 339 52 178 252 335 318 318 307 66 52 80 78 9 272 40 303 262 258 68 302 52 120 204 256 65 308 70 328 102 356 94 196 163 176 127 81 154 258 136 114 132 130 125 128 187 210 194 156 147 216 219 143 149 169 194 159 145 195 230 37 296 330 68 287 271 276 286 155 181 205 213 209 203 200 200 204 206 207 207 203
321 321 324 327 336 338 194 192 135 231 259 317 302 314 313 35 93 101 119 101 346 51 226 55 334 94 337 2 30 353 12 19 121 274 319 12 18 190 52 271 154 128 47 126 172 275 260 123 189 136 122 201 237 249 169 164 172 270 156 168 146 143 142 145 168 164 297 87 271 260 177 192 286 289 281 204 199 211 218 212 205 200 199 202 205 208 208 206
319 322 324 331 339 102 76 230 235 244 319 293 304 310 341 53 34 42 26 72 353 339 326 250 14 252 37 71 353 4 51 357 54 2 29 91 351 31 18 105 107 72 113 14 114 219 302 296 192 84 330 236 235 247 172 178 198 115 90 101 61 52 55 39 77 112 57 284 260 226 215 150 300 255 204 158 218 215 213 218 214 204 204 205 206 205 204 204
318 318 325 331 146 208 148 311 250 250 258 296 303 4 68 40 106 96 80 233 33 268 350 359 272 359 55 98 76 339 62 3 8 29 22 3 16 40 13 17 25 55 39 5 57 337 13 8 31 270 93 313 163 68 32 336 335 197 180 140 88 10 28 52 348 47 167 268 261 244 184 148 170 301 330 300 332 328 240 213 202 202 203 202 202 203 202 201
321 320 316 159 225 28 169 336 198 333 305 295 26 50 70 41 13 62 145 336 90 309 67 298 323 94 69 81 70 9 58 52 17 31 51 7 64 49 13 73 339 82 5 335 166 346 42 38 290 319 310 29 351 83 297 22 22 102 96 85 120 241 68 255 73 178 189 183 246 66 144 51 237 178 325 357 353 338 319 280 244 216 210 205 202 202 201 200
321 325 316 186 187 243 244 298 6 328 324 7 68 53 59 92 63 308 323 331 118 49 303 177 306 41 171 71 41 45 36 63 315 32 66 26 78 68 83 52 327 146 165 234 44 33 97 279 15 339 4 8 36 75 331 88 40 41 135 143 101 122 106 178 253 250 344 281 286 4 248 171 215 334 350 6 346 352 355 352 335 286 250 225 208 201 201 202
323 326 63 187 193 227 256 253 291 350 9 41 70 49 69 60 42 344 342 307 285 340 343 355 344 46 41 91 352 131 54 11 45 357 33 123 46 17 345 12 19 6 72 77 81 327 112 9 350 6 5 333 30 83 214 222 317 261 172 126 172 138 158 185 179 164 189 195 266 308 118 220 143 134 22 8 341 359 1 2 359 352 309 236 220 209 208 204
317 347 122 127 236 244 243 247 238 245 99 66 66 80 82 70 240 296 308 318 304 322 15 349 63 45 9 39 340 44 136 69 38 52 39 53 4 29 355 339 351 50 24 72 340 68 147 172 295 301 243 350 352 304 247 146 230 262 161 77 76 208 142 151 202 143 174 136 54 210 200 171 122 177 31 15 13 17 8 6 4 358 351 315 200 201 203 205
355 5 149 283 269 279 190 194 163 158 88 75 68 46 63 90 329 349 307 223 277 7 318 6 44 58 32 19 336 26 16 105 353 77 30 58 80 34 330 318 3 357 20 100 295 76 22 31 316 321 337 2 339 315 15 113 139 239 61 86 167 180 111 88 71 13 93 65 176 246 338 340 286 334 6 354 7 15 9 5 2 357 350 352 288 214 204 206
28 346 28 311 333 337 165 180 140 100 61 80 84 63 219 341 242 223 300 345 269 349 61 77 347 48 12 25 359 344 327 54 26 82 21 10 13 5 350 305 326 1 43 140 29 158 144 220 295 14 348 310 8 289 233 45 110 69 67 240 295 148 135 124 187 338 60 138 199 32 66 2 24 249 349 344 14 14 8 5 357 357 1 357 345 326 258 214
10 3 265 340 329 326 147 196 132 38 81 73 69 96 316 64 343 264 299 337 358 19 74 87 19 88 29 91 14 351 318 80 323 50 86 5 126 304 333 337 320 33 337 2 120 341 85 40 304 238 255 281 332 27 14 330 13 107 153 331 135 115 176 314 101 136 113 196 118 57 3 81 47 309 337 358 7 9 3 4 9 3 357 349 341 330 320 265
63 63 13 328 337 0 219 130 63 63 65 63 34 86 359 88 336 18 306 254 102 103 62 2 146 6 118 65 171 28 23 89 3 66 85 353 71 12 39 302 307 358 352 10 62 320 26 128 310 294 337 309 3 34 29 318 327 21 10 30 1 91 106 82 72 177 117 195 87 274 42 46 6 346 330 342 351 1 3 10 14 9 357 352 339 334 320 296
27 36 342 311 353 345 345 63 51 45 59 71 31 69 238 47 342 347 9 51 24 44 92 56 18 103 46 70 90 109 23 50 64 18 93 330 126 205 25 353 322 328 49 23 91 289 16 33 67 289 321 35 17 9 22 335 348 349 29 6 6 355 253 97 34 61 57 159 157 144 49 103 329 320 336 344 351 346 8 5 10 12 9 358 353 339 332 312
37 92 282 328 344 336 39 44 44 27 71 282 86 63 18 32 347 347 2 23 80 49 89 79 67 84 202 52 31 13 83 28 32 63 73 55 65 341 39 18 319 344 14 26 50 8 56 17 91 318 18 33 151 286 298 71 44 62 79 58 300 358 26 81 49 348 55 86 185 110 141 199 263 354 326 5 347 352 357 6 5 9 14 10 0 356 350 348
73 41 312 328 345 0 70 58 0 93 79 52 27 337 16 26 28 349 358 1 66 63 36 89 46 72 36 52 155 20 95 45 5 71 24 107 349 130 301 358 299 298 73 39 315 296 131 150 99 42 72 106 137 321 319 108 78 75 64 30 341 34 101 75 123 284 18 359 58 147 119 218 215 9 1 15 349 350 357 356 0 355 9 15 10 2 2 358
31 120 257 298 344 43 73 58 2 42 50 280 239 37 0 52 51 329 36 358 47 49 41 48 1 91 11 91 39 63 74 76 15 63 144 350 43 353 296 317 359 54 82 351 36 304 82 45 30 324 315 300 297 285 352 21 65 13 16 24 17 22 339 211 176 179 114 350 41 345 113 211 210 9 359 359 353 3 3 6 355 355 357 8 8 13 5 6
179 308 330 331 351 51 77 101 79 44 51 1 59 78 358 88 34 6 35 358 49 2 61 20 6 58 104 30 73 64 309 86 7 69 41 43 49 330 1 11 12 39 43 266 96 288 74 322 114 69 9 342 338 357 353 339 42 55 8 345 3 348 1 20 81 34 81 2 114 121 183 201 254 357 354 358 7 17 10 5 4 2 1 15 14 6 12 8
100 292 263 310 356 42 97 169 120 102 58 60 52 33 350 35 11 70 45 28 6 69 81 30 24 311 42 60 87 83 42 130 124 351 112 56 230 331 352 12 9 69 31 33 40 202 81 352 90 126 145 150 184 223 265 319 333 318 19 353 360 21 5 16 26 349 90 246 66 127 263 252 290 14 9 3 1 11 12 4 4 7 358 3 15 14 11 13
32 94 311 353 7 27 54 63 96 120 93 60 47 358 52 44 346 13 38 47 66 43 75 165 34 67 43 51 43 33 32 29 94 183 68 20 332 338 357 346 30 21 31 31 29 70 119 61 90 139 143 162 193 212 261 294 2 33 333 22 345 355 2 68 112 75 72 208 282 233 208 317 335 8 14 7 3 6 4 3 4 357 356 357 16 16 8 17
127 66 0 349 330 38 45 29 29 51 102 149 80 335 15 8 268 11 25 91 357 36 50 48 337 57 1 71 91 64 360 49 20 69 12 75 288 270 317 19 358 13 22 24 8 81 57 61 6 96 86 172 183 191 296 16 127 270 21 332 340 349 357 27 71 216 180 69 319 276 234 7 323 9 14 8 360 3 4 2 359 358 357 0 7 12 15 16
65 254 114 201 124 292 37 358 18 74 46 81 90 51 7 33 28 85 332 52 111 26 98 349 25 33 68 130 124 89 17 53 32 86 347 30 18 349 44 356 39 331 10 7 8 101 126 102 301 80 339 345 300 281 346 36 334 300 308 316 327 314 350 22 291 246 140 171 214 264 320 331 339 3 3 15 358 3 3 358 355 349 3 7 7 13 18 17
118 177 191 338 81 280 165 124 64 88 59 62 95 52 50 62 60 111 165 330 25 354 69 113 345 344 15 55 96 128 131 77 356 320 149 24 45 16 40 348 356 11 39 18 11 87 84 29 204 113 106 8 1 24 27 48 352 342 320 297 276 277 280 271 261 270 203 232 242 270 302 279 46 356 1 26 358 7 358 336 0 13 10 5 5 12 13 13
3 52 353 5 86 74 1 29 33 52 69 349 86 317 111 16 56 346 15 91 64 349 29 86 140 41 50 67 85 84 168 157 164 147 240 123 351 17 163 178 226 334 41 53 319 345 102 306 80 104 83 1 302 332 359 72 197 306 276 266 269 265 276 261 242 303 343 317 350 27 35 298 63 358 346 8 4 350 14 19 13 6 3 5 6 4 6 7
165 158 148 98 39 335 352 19 48 61 68 355 77 282 72 334 100 194 51 316 130 175 137 153 160 118 20 70 66 105 198 159 161 166 187 147 148 221 125 273 156 4 351 18 36 325 71 217 45 69 64 318 284 346 301 297 257 231 287 311 313 352 11 327 350 269 48 281 319 355 37 333 345 348 345 356 23 26 21 10 8 1 357 1 4 358 358 359
84 270 81 102 87 339 30 342 13 57 36 229 134 286 131 291 262 105 70 351 347 336 171 151 178 101 25 61 58 243 218 186 208 215 189 209 173 190 197 167 160 145 199 115 287 75 135 120 88 73 64 271 261 311 318 346 25 29 4 62 43 270 278 285 280 319 5 132 75 65 309 25 330 344 357 4 26 30 23 6 1 355 359 356 356 357 355 351